Location: ?????????
(54.7630°N, 39.4991°E)
Time: 21:46:57
(UTC+00:00)

Cosmos 1782 - Pass Details

Date: 14 April 2026
Orbit: 459 x 465 km, 82.5° (Epoch: 11 May)

Event Time Altitude Azimuth Distance (km) Brightness Sun altitude
Exits shadow 21:42:04 35° 37° (NE) 775 4.0 -25.4°
Drops below altitude 10° 21:44:19 10° 19° (NNE) 1,620 6.2 -25.4°
Sets 21:46:25 0° 15° (NNE) 2,500 7.5 -25.4°
